Bamako, Mali

9:43 AM GMT on April 24, 2018 (GMT +0000)
Bamako

Weather History for GABS - February, 2013

Change the Weather History Date:

Wednesday, February 20, 2013

  Actual Average Record
Temperature  
Mean Temperature 82 °F -  
Max Temperature 96 °F 99 °F 102 °F (2002)
Min Temperature 69 °F 72 °F 60 °F (2014)
Cooling Degree Days 18    
Growing Degree Days 32 (Base 50)    
Moisture  
Dew Point 25 °F    
Average Humidity 14    
Maximum Humidity 29    
Minimum Humidity 7    
Precipitation  
Precipitation 0.00 in 0.00 in - ()
Sea Level Pressure  
Sea Level Pressure 29.91 in    
Wind  
Wind Speed 7 mph ()    
Max Wind Speed 13 mph    
Max Gust Speed -    
Averages and records for this station are not official NWS values.
T = Trace of Precipitation, MM = Missing Value Source: Averaged Metar Reports

Daily Weather History Graph

Daily Weather History Graph

Search for Another Location

Airport or City:

Astronomy

Feb. 20, 2013 Rise Set
Actual Time 6:51 AM GMT 6:39 PM GMT
Civil Twilight 6:30 AM GMT 7:00 PM GMT
Nautical Twilight 6:05 AM GMT 7:25 PM GMT
Astronomical Twilight 5:40 AM GMT 7:50 PM GMT
Moon 2:17 PM GMT (2/20) 2:32 AM GMT (2/20)
Length of Visible Light 12h 30m
Length of Day
11h 47m
Waxing Gibbous, 74% of the Moon is Illuminated
Feb 20
Waxing Gibbous
Feb 25
Full
Mar 4
Last Quarter
Mar 11
New
Mar 19
First Quarter

Hourly Weather History & Observations

Time (GMT) Temp. Dew Point Humidity Pressure Visibility Wind Dir Wind Speed Gust Speed Precip Events Conditions
12:30 AM 73.4 °F 39.2 °F 29% 29.92 in - North 6.9 mph - N/A   Clear
1:00 AM 77.0 °F 32.0 °F 19% 29.89 in - North 8.1 mph - N/A   Clear
1:30 AM 75.2 °F 33.8 °F 22% 29.89 in - NNE 5.8 mph - N/A   Clear
2:00 AM 73.4 °F 32.0 °F 22% 29.89 in - NNE 6.9 mph - N/A   Clear
2:30 AM 75.2 °F 30.2 °F 19% 29.89 in - NNE 8.1 mph - N/A   Clear
3:00 AM 77.0 °F 28.4 °F 17% 29.89 in - North 6.9 mph - N/A   Clear
3:30 AM 73.4 °F 32.0 °F 22% 29.86 in - North 6.9 mph - N/A   Clear
4:00 AM 71.6 °F 30.2 °F 22% 29.86 in - NNE 4.6 mph - N/A   Clear
4:30 AM 69.8 °F 32.0 °F 25% 29.86 in - North 5.8 mph - N/A   Clear
5:00 AM 69.8 °F 30.2 °F 23% 29.86 in - NNE 6.9 mph - N/A   Clear
5:30 AM 73.4 °F 26.6 °F 18% 29.89 in - North 9.2 mph - N/A   Clear
6:00 AM 73.4 °F 26.6 °F 18% 29.89 in - NNE 8.1 mph - N/A   Clear
6:30 AM 75.2 °F 24.8 °F 15% 29.92 in - North 9.2 mph - N/A   Clear
7:00 AM 75.2 °F 23.0 °F 14% 29.92 in - NNE 10.4 mph - N/A   Clear
7:30 AM 73.4 °F 23.0 °F 15% 29.95 in - NNE 8.1 mph - N/A   Clear
8:00 AM 75.2 °F 21.2 °F 13% 29.95 in - NNE 8.1 mph - N/A   Clear
8:30 AM 78.8 °F 15.8 °F 9% 29.95 in - NE 10.4 mph - N/A   Clear
9:00 AM 80.6 °F 15.8 °F 9% 29.98 in - NE 12.7 mph - N/A   Clear
9:30 AM 82.4 °F 15.8 °F 8% 29.98 in - NE 12.7 mph - N/A   Clear
10:00 AM 84.2 °F 17.6 °F 8% 29.98 in - NE 12.7 mph - N/A   Clear
11:00 AM 87.8 °F 15.8 °F 7% 29.98 in - NE 11.5 mph - N/A   Clear
11:30 AM 87.8 °F 17.6 °F 8% 29.98 in - ENE 10.4 mph - N/A   Clear
12:00 PM 89.6 °F 17.6 °F 7% 29.95 in - ENE 9.2 mph - N/A   Clear
12:30 PM 91.4 °F 19.4 °F 7% 29.95 in - ENE 8.1 mph - N/A   Clear
1:00 PM 93.2 °F 21.2 °F 7% 29.92 in - ENE 8.1 mph - N/A   Clear
1:30 PM 95.0 °F 21.2 °F 7% 29.92 in - NNE 5.8 mph - N/A   Clear
2:00 PM 95.0 °F 21.2 °F 7% 29.89 in - NNE 6.9 mph - N/A   Clear
2:30 PM 96.8 °F 23.0 °F 7% 29.89 in - North 9.2 mph - N/A   Clear
3:00 PM 96.8 °F 23.0 °F 7% 29.86 in - North 5.8 mph - N/A   Clear
3:30 PM 96.8 °F 26.6 °F 8% 29.86 in - North 6.9 mph - N/A   Clear
4:00 PM 96.8 °F 23.0 °F 7% 29.86 in - Variable 4.6 mph - N/A   Clear
4:30 PM 96.8 °F 23.0 °F 7% 29.86 in - NNE 5.8 mph - N/A   Clear
5:00 PM 96.8 °F 23.0 °F 7% 29.86 in - North 4.6 mph - N/A   Clear
5:30 PM 95.0 °F 21.2 °F 7% 29.83 in - NE 6.9 mph - N/A   Clear
6:00 PM 93.2 °F 23.0 °F 8% 29.86 in - ENE 8.1 mph - N/A   Clear
6:30 PM 89.6 °F 24.8 °F 10% 29.86 in - NE 5.8 mph - N/A   Clear
7:00 PM 86.0 °F 24.8 °F 11% 29.86 in - NE 6.9 mph - N/A   Clear
7:30 PM 82.4 °F 30.2 °F 15% 29.86 in - NNE 5.8 mph - N/A   Clear
8:00 PM 77.0 °F 33.8 °F 21% 29.89 in - NNE 5.8 mph - N/A   Clear
8:30 PM 78.8 °F 28.4 °F 16% 29.89 in - NNE 4.6 mph - N/A   Clear
9:00 PM 77.0 °F 30.2 °F 18% 29.92 in - North 4.6 mph - N/A   Clear
9:30 PM 75.2 °F 32.0 °F 21% 29.92 in - NNE 4.6 mph - N/A   Clear
10:00 PM 75.2 °F 30.2 °F 19% 29.95 in - NNE 5.8 mph - N/A   Clear
11:00 PM 73.4 °F 32.0 °F 22% 29.95 in - NNE 5.8 mph - N/A   Clear
11:30 PM 75.2 °F 28.4 °F 18% 29.95 in - NE 6.9 mph - N/A   Clear